[[{"header":{"parameterUnit":"m.s-1","parameterCategory":1,"la1":30.2991,"la2":30.254,"lo1":-89.0895,"lo2":-89.0444,"dy":0.0017,"dx":0.0017,"nx":28,"ny":28,"refTime":"2023-08-25T09:00:00:Z","depth":0,"parameterNumber":2,"parameterNumberName":"U-component_of_WINDS"},"data":[0,0,0,0,0,0,0,0,0,0,0,0,0,0,0,0,0,0,0,0,0,0,0,0,0,0,0,0,0,0,0,0,0,0,0,0,0,0,0,0,0,0,0,0,0,0,0,0,0,0,0,0,0,0,0,0,0,0,3.3696,3.3696,0,3.3725,3.3725,3.3726,3.365,3.3648,3.3645,3.3643,3.3672,3.3675,3.3677,0,0,0,0,0,0,0,0,0,0,0,0,0,3.3575,3.3577,3.3696,3.3696,3.3697,3.3725,3.3725,3.3726,3.3651,3.3648,3.3645,3.3642,3.3671,3.3674,3.3678,0,0,0,0,0,0,0,0,0,0,0,0,0,3.3618,3.3578,3.3696,3.3662,3.366,3.3725,3.3725,3.3726,3.3651,3.3648,3.3644,3.3641,3.367,3.3674,3.3678,3.3777,0,0,3.3692,3.3694,0,0,0,0,0,0,0,0,3.3616,3.3623,3.3667,3.3665,3.3662,3.368,3.3693,3.3743,3.3652,3.3654,3.3643,3.3639,3.3677,3.3681,3.3694,3.3778,3.3779,3.3692,3.3695,3.3697,3.3698,0,0,0,0,0,0,0,3.3613,3.3621,3.3707,3.3668,3.3665,3.3646,3.3648,3.3702,3.3685,3.3654,3.3648,3.3653,3.3675,3.369,3.3694,3.378,3.3692,3.3696,3.3699,3.3701,3.3947,3.3951,0,0,0,0,0,0,3.3614,3.3619,3.3706,3.3708,3.363,3.3651,3.3654,3.3678,3.3685,3.3682,3.3656,3.3649,3.3684,3.3689,3.3695,3.3812,3.3697,3.3701,3.3703,3.3944,3.3948,3.3952,0,0,0,0,0,0,3.3612,3.3623,3.3705,3.3662,3.3671,3.3657,3.3685,3.368,3.3695,3.3686,3.3683,3.3674,3.3682,3.3689,3.3757,3.3811,3.3703,3.3707,3.3939,3.3945,3.395,3.4045,0,0,0,0,0,0,3.3609,3.3622,3.3659,3.3664,3.3674,3.3767,3.3688,3.3684,3.3703,3.3695,3.3702,3.37,3.3679,3.3751,3.3762,3.3816,3.371,3.3934,3.3942,3.3949,3.4037,3.4053,3.4067,0,0,0,0,0,3.3605,3.3684,3.3662,3.3673,3.372,3.3771,3.3776,3.3751,3.3708,3.3745,3.374,3.37,3.3804,3.3759,3.377,3.3826,3.393,3.394,3.3948,3.403,3.405,3.4067,0,0,0,0,0,0,3.3685,3.3684,3.3659,3.3742,3.3757,3.3758,3.3804,3.3773,3.38,3.3791,3.3758,3.3761,3.3836,3.3838,3.3787,3.3923,3.386,3.3871,3.3919,3.3937,3.3952,3.395,3.3714,0,0,0,0,0,3.3713,3.3755,3.3751,3.3825,3.3834,3.3818,3.3839,3.3819,3.3833,3.3838,3.3838,3.3853,3.3889,3.3913,3.3946,3.4037,3.4038,3.4082,3.4097,3.4109,3.412,3.417,3.4189,3.3981,3.3981,3.3981,0,0,3.377,3.3775,3.3802,3.3841,3.385,3.3894,3.3824,3.3872,3.3905,3.3845,3.3911,3.3911,3.3926,3.4007,3.4042,3.4011,3.4177,3.4121,3.4131,3.4134,3.4181,3.42,3.4218,3.3987,3.3986,3.3985,0,0,3.3897,3.3904,3.3967,3.3979,3.3994,3.3983,3.3999,3.4005,3.4003,3.4068,3.4025,3.4063,3.4126,3.4139,3.4153,3.4288,3.4253,3.43,3.4379,3.4428,3.4444,3.4459,3.4508,3.4525,3.431,3.431,3.431,0,3.3966,3.403,3.4003,3.4056,3.4075,3.4025,3.4089,3.4101,3.4126,3.414,3.4105,3.4184,3.419,3.4274,3.4307,3.432,3.4337,3.4298,3.4444,3.4458,3.4471,3.4518,3.4536,3.4316,3.4315,3.4315,3.4314,0,3.4115,3.4161,3.421,3.4237,3.4261,3.4319,3.4301,3.4329,3.4308,3.4301,3.4369,3.4375,3.4409,3.4427,3.4406,3.4509,3.4489,3.445,3.4386,3.4497,3.454,3.4558,3.4324,3.4322,3.432,3.4319,0,0,3.4291,3.4305,3.4323,3.4336,3.435,3.4385,3.4442,3.4476,3.4501,3.4521,3.4568,3.4623,3.4587,3.4604,3.4584,3.4627,3.4735,3.4582,3.4582,3.4611,3.4851,3.488,3.4901,3.4712,3.4716,3.4718,3.485,0,3.4417,3.4514,3.4493,3.4589,3.4632,3.4586,3.4635,3.465,3.4646,3.4681,3.4677,3.4717,3.4666,3.4676,3.4717,3.4713,3.4783,3.4704,3.4756,3.4758,3.4754,3.4923,3.4955,3.5078,3.4866,3.4869,3.4871,0,3.4576,3.4604,3.4704,3.4714,3.4731,3.4776,3.4807,3.4841,3.4857,3.4851,3.4872,3.4844,3.4901,3.4837,3.4915,3.4862,3.4882,3.4884,3.4888,3.4892,3.4821,3.4932,3.5117,3.5136,3.4897,3.4895,3.4893,0,3.4696,3.4758,3.4827,3.4839,3.4851,3.4884,3.4891,3.4904,3.4927,3.4953,3.4968,3.5001,3.5019,3.5045,3.5027,3.4982,3.5109,3.5043,3.5106,3.5107,3.5134,3.5132,3.5325,3.5147,3.5147,3.5147,3.5146,0,3.4838,3.4902,3.4881,3.4923,3.4993,3.4969,3.5039,3.504,3.5053,3.5095,3.5057,3.5097,3.5071,3.511,3.5096,3.5164,3.5172,3.5169,3.5164,3.5172,3.5173,3.5185,3.5176,3.5152,3.5151,3.515,3.5149,0,3.4983,3.4972,3.5044,3.5051,3.5054,3.5106,3.5112,3.5152,3.5146,3.52,3.5211,3.5201,3.5245,3.523,3.5276,3.5267,3.5353,3.5338,3.5348,3.5344,3.5408,3.5402,3.5615,3.5642,3.5447,3.5449,3.545,0,3.5075,3.5123,3.5136,3.5162,3.5172,3.5214,3.5238,3.5216,3.5242,3.5265,3.5303,3.5343,3.5374,3.5446,3.5443,3.5479,3.5464,3.5536,3.5469,3.5476,3.5466,3.5463,3.5468,3.5549,3.5551,3.5553,3.5555,0,3.5239,3.5232,3.5267,3.5302,3.5331,3.5357,3.5379,3.5403,3.5382,3.5414,3.5458,3.5483,3.5531,3.5572,3.5605,3.5611,3.5581,3.5576,3.5593,3.5601,3.5605,3.5605,3.5385,3.5571,3.5569,3.5568,3.5567,3.5567,3.5361,3.5402,3.5418,3.546,3.5475,3.5497,3.5535,3.5535,3.5572,3.561,3.5595,3.5647,3.5664,3.5704,3.5716,3.5757,3.5729,3.5752,3.5758,3.5764,3.5773,3.56,3.5762,3.5762,3.5761,3.5761,3.5761,0,3.5524,3.5532,3.5571,3.5604,3.5637,3.5606,3.563,3.566,3.5706,3.5724,3.5757,3.5809,3.5849,3.585,3.5888,3.592,3.5907,3.5931,3.5928,3.5931,3.5795,3.5778,3.5941,3.5941,3.5941,3.5941,3.5941,3.5941,3.5612,3.5681,3.5676,3.5753,3.5761,3.5812,3.5828,3.5849,3.5864,3.5924,3.5958,3.5959,3.5971,3.601,3.6045,3.6045,3.606,3.609,3.6084,3.5958,3.594,3.5923,3.5906,3.6094,3.6094,3.6216,3.6217,3.6218]},{"header":{"parameterUnit":"m.s-1","parameterCategory":1,"la1":30.2991,"la2":30.254,"lo1":-89.0895,"lo2":-89.0444,"dy":0.0017,"dx":0.0017,"nx":28,"ny":28,"refTime":"2023-08-25T09:00:00:Z","depth":0,"parameterNumber":3,"parameterNumberName":"V-component_of_WINDS"},"data":[0,0,0,0,0,0,0,0,0,0,0,0,0,0,0,0,0,0,0,0,0,0,0,0,0,0,0,0,0,0,0,0,0,0,0,0,0,0,0,0,0,0,0,0,0,0,0,0,0,0,0,0,0,0,0,0,0,0,-3.017,-3.0171,0,-3.027,-3.0272,-3.0273,-3.0257,-3.0255,-3.0254,-3.0252,-3.0354,-3.0358,-3.0363,0,0,0,0,0,0,0,0,0,0,0,0,0,-2.9964,-2.9968,-3.017,-3.0171,-3.0172,-3.027,-3.0272,-3.0273,-3.0257,-3.0255,-3.0253,-3.0251,-3.0353,-3.0358,-3.0363,0,0,0,0,0,0,0,0,0,0,0,0,0,-3.0058,-2.9969,-3.0169,-3.0176,-3.0178,-3.027,-3.0272,-3.0273,-3.0258,-3.0255,-3.0253,-3.025,-3.0351,-3.0357,-3.0364,-3.0455,0,0,-3.0384,-3.0386,0,0,0,0,0,0,0,0,-3.0052,-3.0065,-3.0174,-3.0176,-3.0178,-3.0249,-3.0237,-3.0334,-3.0259,-3.0227,-3.0252,-3.0249,-3.0321,-3.033,-3.0354,-3.046,-3.0464,-3.0384,-3.0388,-3.0391,-3.0393,0,0,0,0,0,0,0,-3.0046,-3.0061,-3.0209,-3.0176,-3.0178,-3.0174,-3.0185,-3.0255,-3.0287,-3.023,-3.0229,-3.0241,-3.0322,-3.0348,-3.0357,-3.0466,-3.0384,-3.039,-3.0394,-3.0396,-3.0653,-3.0656,0,0,0,0,0,0,-3.0037,-3.0055,-3.0206,-3.0212,-3.0108,-3.018,-3.0192,-3.0228,-3.0287,-3.0293,-3.0243,-3.024,-3.0338,-3.0349,-3.036,-3.0472,-3.0391,-3.0397,-3.0401,-3.065,-3.0654,-3.0657,0,0,0,0,0,0,-3.0033,-3.0051,-3.0202,-3.0134,-3.0153,-3.0186,-3.0228,-3.0232,-3.0258,-3.0297,-3.0302,-3.0265,-3.0337,-3.0351,-3.0432,-3.0475,-3.04,-3.0406,-3.0647,-3.0651,-3.0655,-3.0696,0,0,0,0,0,0,-3.0027,-3.005,-3.0085,-3.0135,-3.0157,-3.0273,-3.023,-3.0236,-3.027,-3.0266,-3.0318,-3.0324,-3.0336,-3.0423,-3.0439,-3.0483,-3.0411,-3.0643,-3.0649,-3.0654,-3.0691,-3.0701,-3.071,0,0,0,0,0,-3.002,-3.0091,-3.0086,-3.0105,-3.0201,-3.0275,-3.0287,-3.03,-3.0273,-3.0309,-3.0334,-3.0323,-3.0468,-3.0431,-3.0449,-3.0496,-3.064,-3.0647,-3.0654,-3.0686,-3.0699,-3.071,0,0,0,0,0,0,-3.0045,-3.0098,-3.0093,-3.0183,-3.0225,-3.0272,-3.0317,-3.0312,-3.0362,-3.0357,-3.037,-3.0382,-3.0464,-3.0488,-3.0446,-3.0588,-3.0551,-3.0561,-3.0569,-3.0582,-3.0591,-3.0583,-3.0416,0,0,0,0,0,-3.0061,-3.0116,-3.016,-3.0235,-3.0256,-3.0283,-3.0316,-3.0322,-3.0366,-3.0383,-3.0414,-3.0457,-3.0512,-3.0548,-3.0601,-3.0694,-3.0706,-3.0736,-3.0745,-3.0753,-3.0762,-3.0814,-3.0828,-3.0679,-3.0679,-3.0679,0,0,-3.0094,-3.013,-3.0164,-3.0241,-3.0274,-3.0332,-3.0298,-3.036,-3.0403,-3.0392,-3.0471,-3.0496,-3.0544,-3.0632,-3.0672,-3.0654,-3.0806,-3.0761,-3.0767,-3.0772,-3.0822,-3.0836,-3.0849,-3.0683,-3.0682,-3.0682,0,0,-3.0184,-3.0217,-3.0284,-3.0318,-3.0369,-3.0387,-3.0403,-3.0452,-3.0468,-3.0547,-3.054,-3.0592,-3.0687,-3.0722,-3.0752,-3.0858,-3.085,-3.0875,-3.0925,-3.0975,-3.0987,-3.0998,-3.1036,-3.105,-3.0884,-3.0884,-3.0884,0,-3.0219,-3.0306,-3.0318,-3.0382,-3.0416,-3.041,-3.0478,-3.051,-3.0576,-3.06,-3.0579,-3.0699,-3.0731,-3.0828,-3.0854,-3.0878,-3.0898,-3.0869,-3.0985,-3.0995,-3.1005,-3.1042,-3.1056,-3.0887,-3.0886,-3.0886,-3.0886,0,-3.0347,-3.0407,-3.0455,-3.0519,-3.0559,-3.0624,-3.0647,-3.0686,-3.0689,-3.0709,-3.079,-3.0829,-3.089,-3.0914,-3.0917,-3.1011,-3.0999,-3.0981,-3.0944,-3.1022,-3.1057,-3.1071,-3.089,-3.0889,-3.0889,-3.0888,0,0,-3.0454,-3.0526,-3.0543,-3.0573,-3.0629,-3.0676,-3.0742,-3.0803,-3.0836,-3.0882,-3.0937,-3.1019,-3.1003,-3.1038,-3.1045,-3.109,-3.1172,-3.1067,-3.1068,-3.1085,-3.128,-3.1293,-3.1309,-3.1167,-3.117,-3.1172,-3.1276,0,-3.0551,-3.0666,-3.068,-3.0784,-3.084,-3.0836,-3.0893,-3.0934,-3.0955,-3.1006,-3.1029,-3.1087,-3.1062,-3.1083,-3.1127,-3.1153,-3.1211,-3.1145,-3.1219,-3.1222,-3.1208,-3.1327,-3.1341,-3.1437,-3.1289,-3.1292,-3.1293,0,-3.0678,-3.0728,-3.0837,-3.0887,-3.0911,-3.0963,-3.102,-3.1069,-3.1116,-3.1128,-3.1167,-3.1169,-3.1238,-3.1198,-3.1292,-3.1247,-3.1279,-3.1296,-3.13,-3.1308,-3.1262,-3.1338,-3.1467,-3.1482,-3.1315,-3.1313,-3.1312,0,-3.0746,-3.0841,-3.0919,-3.0944,-3.1004,-3.1041,-3.1067,-3.1112,-3.1148,-3.1198,-3.1222,-3.1279,-3.1311,-3.1355,-3.1373,-3.1342,-3.1467,-3.1428,-3.148,-3.1479,-3.1506,-3.1504,-3.1643,-3.1526,-3.1525,-3.1525,-3.1525,0,-3.0852,-3.0919,-3.0951,-3.0999,-3.1074,-3.109,-3.1164,-3.1189,-3.1229,-3.1282,-3.1281,-3.1331,-3.1352,-3.1405,-3.1419,-3.1496,-3.151,-3.1522,-3.1525,-3.1522,-3.1521,-3.1543,-3.1537,-3.1529,-3.1528,-3.1527,-3.1527,0,-3.0941,-3.0965,-3.1049,-3.11,-3.1114,-3.1168,-3.1211,-3.1257,-3.1278,-3.1346,-3.1362,-3.1395,-3.1458,-3.148,-3.1556,-3.1566,-3.1655,-3.1653,-3.164,-3.1641,-3.1691,-3.1686,-3.1848,-3.1871,-3.1739,-3.174,-3.1741,0,-3.1007,-3.1059,-3.1115,-3.1151,-3.1179,-3.1236,-3.1274,-3.1291,-3.133,-3.1388,-3.1428,-3.1491,-3.1542,-3.1643,-3.1673,-3.1732,-3.1731,-3.1784,-3.174,-3.1736,-3.1733,-3.1729,-3.1735,-3.1792,-3.1793,-3.1795,-3.1795,0,-3.1122,-3.1132,-3.1185,-3.1244,-3.1288,-3.1335,-3.138,-3.141,-3.1434,-3.1478,-3.1543,-3.1583,-3.1661,-3.1724,-3.1784,-3.1811,-3.1808,-3.1809,-3.1824,-3.1822,-3.1813,-3.1819,-3.1663,-3.1805,-3.1804,-3.1804,-3.1803,-3.1803,-3.1202,-3.1248,-3.1295,-3.1356,-3.1392,-3.1435,-3.1481,-3.1509,-3.1563,-3.1629,-3.1636,-3.1706,-3.1753,-3.1833,-3.1864,-3.1919,-3.1905,-3.1926,-3.1932,-3.1937,-3.1941,-3.1804,-3.193,-3.193,-3.193,-3.1929,-3.1929,0,-3.1317,-3.1348,-3.1403,-3.1467,-3.1515,-3.1508,-3.1558,-3.1599,-3.166,-3.1705,-3.1755,-3.183,-3.1891,-3.1928,-3.1989,-3.2026,-3.2026,-3.2042,-3.2039,-3.2046,-3.195,-3.1931,-3.2041,-3.2041,-3.2041,-3.2041,-3.2041,-3.2041,-3.1383,-3.1461,-3.1477,-3.1574,-3.1604,-3.1672,-3.1702,-3.1742,-3.1777,-3.1861,-3.1912,-3.1935,-3.1977,-3.2041,-3.2098,-3.2107,-3.213,-3.2147,-3.2154,-3.2064,-3.2053,-3.2042,-3.2024,-3.2151,-3.2151,-3.2246,-3.2247,-3.2247]}]]